Location: Complexul Astronomic Baia Mare
(47.6577°N, 23.5639°E)
Time: 05:41:51
(UTC+03:00)

ISS - Pass Details

Date: 17 March 2017
Orbit: 399 x 409 km, 51.6° (Epoch: 30 March)

Event Time Altitude Azimuth Distance (km) Brightness Sun altitude
Exits shadow 04:18:26 38° 26° (NNE) 643 -2.5 -23.1°
Drops below altitude 10° 04:21:10 10° 77° (ENE) 1,478 0.1 -22.7°
Sets 04:23:21 0° 85° (E) 2,340 1.3 -22.4°
